Weather History for KNTU - September, 2013

Change the Weather History Date:

Tuesday, September 10, 2013

  Actual Average Record
Temperature  
Mean Temperature 77 °F -  
Max Temperature 89 °F 78 °F 90 °F (2007)
Min Temperature 66 °F 64 °F 54 °F (1998)
Cooling Degree Days 12    
Growing Degree Days 27 (Base 50)    
Moisture  
Dew Point 68 °F    
Average Humidity 75    
Maximum Humidity 100    
Minimum Humidity 51    
Precipitation  
Precipitation 0.00 in - - ()
Sea Level Pressure  
Sea Level Pressure 30.19 in    
Wind  
Wind Speed 5 mph (South)    
Max Wind Speed 14 mph    
Max Gust Speed -    
Visibility 9 miles    
Events Fog    
Averages and records for this station are not official NWS values.
T = Trace of Precipitation, MM = Missing Value Source: NWS Daily Summary

Daily Weather History Graph

Daily Weather History Graph

Search for Another Location

Airport or City:

Trip Planner

Search our weather history database for the weather conditions in past years. The results will help you decide how hot, cold, wet, or windy it might be!

Date:

Astronomy

Sep. 10, 2013 Rise Set
Actual Time 6:42 AM EDT 7:18 PM EDT
Civil Twilight 6:16 AM EDT 7:44 PM EDT
Nautical Twilight 5:45 AM EDT 8:15 PM EDT
Astronomical Twilight 5:14 AM EDT 8:47 PM EDT
Moon 11:56 AM EDT (9/10) 10:29 PM EDT (9/10)
Length of Visible Light 13h 28m
Length of Day
12h 36m
Waxing Crescent, 28% of the Moon is Illuminated
Sep 10
Waxing Crescent
Sep 12
First Quarter
Sep 19
Full
Sep 26
Last Quarter
Oct 4
New

Hourly Weather History & Observations

Time (EDT) Temp. Heat Index Dew Point Humidity Pressure Visibility Wind Dir Wind Speed Gust Speed Precip Events Conditions
12:56 AM 73.0 °F - 69.1 °F 87% 30.17 in 10.0 mi SE 4.6 mph - N/A   Scattered Clouds
1:56 AM 72.0 °F - 69.1 °F 91% 30.17 in 10.0 mi SSE 4.6 mph - N/A   Scattered Clouds
2:56 AM 71.1 °F - 68.0 °F 90% 30.17 in 10.0 mi Calm Calm - N/A   Scattered Clouds
3:56 AM 66.9 °F - 66.0 °F 97% 30.17 in 6.0 mi SW 3.5 mph - N/A   Scattered Clouds
4:56 AM 66.9 °F - 66.9 °F 100% 30.18 in 6.0 mi Calm Calm - N/A   Scattered Clouds
5:56 AM 68.0 °F - 66.9 °F 96% 30.18 in 6.0 mi Calm Calm - N/A   Scattered Clouds
6:56 AM 66.0 °F - 64.9 °F 96% 30.21 in 4.0 mi Calm Calm - N/A Fog Scattered Clouds
7:56 AM 72.0 °F - 70.0 °F 93% 30.22 in 5.0 mi Calm Calm - N/A   Scattered Clouds
8:56 AM 75.0 °F - 71.1 °F 87% 30.23 in 10.0 mi SSW 3.5 mph - N/A   Mostly Cloudy
9:56 AM 80.1 °F 83.2 °F 70.0 °F 71% 30.24 in 10.0 mi South 3.5 mph - N/A   Scattered Clouds
10:56 AM 81.0 °F 84.1 °F 69.1 °F 67% 30.24 in 10.0 mi South 8.1 mph - N/A   Scattered Clouds
11:56 AM 84.9 °F 87.6 °F 66.9 °F 55% 30.23 in 10.0 mi SSW 5.8 mph - N/A   Scattered Clouds
12:56 PM 86.0 °F 89.4 °F 68.0 °F 55% 30.21 in 10.0 mi SW 8.1 mph - N/A   Scattered Clouds
1:56 PM 87.1 °F 91.3 °F 69.1 °F 55% 30.20 in 10.0 mi Variable 6.9 mph - N/A   Scattered Clouds
2:56 PM 88.0 °F 91.4 °F 68.0 °F 51% 30.17 in 10.0 mi SSW 8.1 mph - N/A   Scattered Clouds
3:56 PM 88.0 °F 92.1 °F 69.1 °F 53% 30.16 in 10.0 mi South 8.1 mph - N/A   Partly Cloudy
4:56 PM 84.9 °F 90.1 °F 71.1 °F 63% 30.15 in 10.0 mi SSE 11.5 mph - N/A   Partly Cloudy
5:56 PM 84.0 °F 87.8 °F 69.1 °F 61% 30.16 in 10.0 mi SSE 13.8 mph - N/A   Scattered Clouds
6:56 PM 81.0 °F 84.1 °F 69.1 °F 67% 30.16 in 10.0 mi SSE 8.1 mph - N/A   Scattered Clouds
7:56 PM 79.0 °F - 69.1 °F 72% 30.17 in 10.0 mi South 6.9 mph - N/A   Partly Cloudy
8:56 PM 78.1 °F - 68.0 °F 71% 30.18 in 10.0 mi South 5.8 mph - N/A   Clear
9:56 PM 77.0 °F - 68.0 °F 74% 30.19 in 10.0 mi South 6.9 mph - N/A   Clear
10:56 PM 75.9 °F - 68.0 °F 76% 30.20 in 10.0 mi South 4.6 mph - N/A   Clear
11:56 PM 75.0 °F - 68.0 °F 79% 30.20 in 10.0 mi SSW 8.1 mph - N/A   Clear